SWA365 KLAS-KSFO

Flight info

Callsign SWA365
Flight time 1h 5m
Altitude 30000
Route JOHKR5 KENNO DCT RUSME DYAMD5
Aircraft B38M/M-SDE1FGHILORVWXY/HB1

Departure

Time 2026-05-04 05:32
Airport Harry Reid International Airport (KLAS)

Arrival

Time 2026-05-04 06:38
Airport San Francisco International Airport (KSFO)
Time Latitude Longitude Altitude Speed Heading
2026-05-04 04:49 36.08331 -115.15273 2099 ft 0 kts 179°
2026-05-04 05:17 36.08346 -115.15275 2099 ft 4 kts 166°
2026-05-04 05:18 36.08370 -115.15288 2099 ft 4 kts 139°
2026-05-04 05:18 36.08387 -115.15313 2099 ft 4 kts 123°
2026-05-04 05:18 36.08403 -115.15340 2099 ft 4 kts 137°
2026-05-04 05:18 36.08411 -115.15351 2099 ft 4 kts 225°
2026-05-04 05:19 36.08410 -115.15353 2099 ft 1 kts 245°
2026-05-04 05:23 36.08409 -115.15358 2099 ft 1 kts 246°
2026-05-04 05:23 36.08399 -115.15386 2100 ft 8 kts 246°
2026-05-04 05:24 36.08369 -115.15463 2100 ft 3 kts 244°
2026-05-04 05:24 36.08360 -115.15485 2100 ft 1 kts 244°
2026-05-04 05:24 36.08350 -115.15506 2101 ft 6 kts 245°
2026-05-04 05:24 36.08292 -115.15568 2102 ft 15 kts 179°
2026-05-04 05:25 36.08181 -115.15549 2101 ft 20 kts 212°
2026-05-04 05:25 36.08162 -115.15704 2105 ft 19 kts 270°
2026-05-04 05:25 36.08163 -115.15881 2113 ft 18 kts 270°
2026-05-04 05:25 36.08162 -115.16033 2120 ft 17 kts 269°
2026-05-04 05:26 36.08085 -115.16150 2128 ft 20 kts 203°
2026-05-04 05:26 36.07994 -115.16201 2131 ft 18 kts 205°
2026-05-04 05:26 36.07861 -115.16277 2137 ft 16 kts 205°
2026-05-04 05:26 36.07833 -115.16293 2137 ft 0 kts 205°
2026-05-04 05:28 36.07485 -115.16494 2148 ft 23 kts 205°
2026-05-04 05:29 36.07425 -115.16529 2152 ft 0 kts 207°
2026-05-04 05:29 36.07421 -115.16532 2150 ft 3 kts 209°
2026-05-04 05:29 36.07386 -115.16581 2151 ft 11 kts 261°
2026-05-04 05:29 36.07414 -115.16674 2154 ft 14 kts 293°
2026-05-04 05:31 36.07733 -115.16573 2153 ft 48 kts 25°
2026-05-04 05:31 36.08228 -115.16290 2136 ft 118 kts 25°
2026-05-04 05:32 36.09205 -115.15738 2186 ft 180 kts 24°
2026-05-04 05:32 36.10327 -115.15070 3122 ft 176 kts 24°
2026-05-04 05:32 36.11531 -115.14693 3924 ft 184 kts 354°
2026-05-04 05:33 36.13443 -115.16673 5025 ft 205 kts 280°
2026-05-04 05:33 36.13330 -115.18471 5529 ft 223 kts 246°
2026-05-04 05:33 36.12729 -115.20313 6273 ft 238 kts 252°
2026-05-04 05:33 36.12288 -115.22336 7042 ft 255 kts 253°
2026-05-04 05:34 36.11802 -115.24500 7867 ft 266 kts 252°
2026-05-04 05:34 36.11263 -115.26733 8750 ft 275 kts 246°
2026-05-04 05:34 36.10207 -115.28679 9673 ft 275 kts 221°
2026-05-04 05:34 36.08572 -115.29932 10525 ft 283 kts 202°
2026-05-04 05:35 36.06703 -115.30888 11216 ft 296 kts 201°
2026-05-04 05:35 36.04760 -115.31865 11913 ft 307 kts 201°
2026-05-04 05:35 36.02749 -115.32861 12707 ft 313 kts 200°
2026-05-04 05:35 36.00740 -115.33847 13596 ft 316 kts 200°
2026-05-04 05:36 35.98670 -115.34854 14425 ft 320 kts 201°
2026-05-04 05:36 35.96588 -115.35856 15268 ft 323 kts 201°
2026-05-04 05:36 35.94480 -115.36869 16045 ft 326 kts 201°
2026-05-04 05:36 35.92350 -115.37893 16786 ft 330 kts 201°
2026-05-04 05:37 35.90263 -115.39016 17495 ft 332 kts 211°
2026-05-04 05:37 35.88512 -115.40882 18200 ft 337 kts 230°
2026-05-04 05:37 35.87386 -115.43436 18908 ft 343 kts 249°
2026-05-04 05:38 35.87123 -115.49378 20373 ft 351 kts 269°
2026-05-04 05:38 35.87250 -115.52344 21099 ft 350 kts 269°
2026-05-04 05:38 35.87389 -115.55236 21791 ft 350 kts 269°
2026-05-04 05:38 35.87548 -115.58236 22457 ft 350 kts 269°
2026-05-04 05:39 35.87714 -115.61227 23158 ft 349 kts 269°
2026-05-04 05:39 35.88053 -115.67198 24417 ft 349 kts 269°
2026-05-04 05:39 35.88222 -115.70180 24978 ft 350 kts 270°
2026-05-04 05:40 35.88561 -115.76162 25899 ft 355 kts 270°
2026-05-04 05:40 35.88731 -115.79212 26362 ft 357 kts 270°
2026-05-04 05:40 35.88903 -115.82266 26821 ft 358 kts 270°
2026-05-04 05:41 35.89074 -115.85351 27237 ft 360 kts 270°
2026-05-04 05:41 35.89245 -115.88433 27754 ft 359 kts 270°
2026-05-04 05:41 35.89518 -115.91487 28318 ft 361 kts 279°
2026-05-04 05:41 35.90496 -115.94384 28898 ft 371 kts 295°
2026-05-04 05:42 35.92166 -115.96876 29445 ft 381 kts 306°
2026-05-04 05:42 35.94010 -115.99227 29759 ft 382 kts 305°
2026-05-04 05:42 35.97686 -116.03860 29853 ft 377 kts 306°
2026-05-04 05:43 36.01386 -116.08457 29900 ft 378 kts 306°
2026-05-04 05:45 36.16195 -116.26809 29859 ft 377 kts 306°
2026-05-04 05:47 36.31030 -116.45090 29859 ft 381 kts 307°
2026-05-04 05:47 36.34864 -116.49657 29860 ft 381 kts 307°
2026-05-04 05:48 36.38694 -116.54231 29826 ft 382 kts 307°
2026-05-04 05:48 36.42509 -116.58794 29859 ft 384 kts 307°
2026-05-04 05:49 36.46439 -116.63339 29874 ft 386 kts 309°
2026-05-04 05:49 36.50401 -116.67848 29868 ft 387 kts 309°
2026-05-04 05:51 36.66275 -116.85967 29902 ft 389 kts 309°
2026-05-04 05:52 36.70276 -116.90545 29910 ft 390 kts 309°
2026-05-04 05:52 36.74436 -116.94923 29878 ft 403 kts 322°
2026-05-04 05:54 36.94500 -117.07938 29933 ft 409 kts 324°
2026-05-04 05:55 36.99556 -117.11229 29918 ft 409 kts 324°
2026-05-04 05:55 37.04606 -117.14521 29934 ft 409 kts 324°
2026-05-04 05:56 37.09632 -117.17800 29919 ft 409 kts 324°
2026-05-04 05:56 37.14689 -117.21105 29931 ft 410 kts 324°
2026-05-04 05:57 37.19758 -117.24423 29938 ft 411 kts 325°
2026-05-04 05:57 37.24844 -117.27758 29933 ft 411 kts 325°
2026-05-04 05:58 37.29885 -117.31158 29928 ft 407 kts 318°
2026-05-04 05:58 37.34134 -117.35653 29928 ft 401 kts 314°
2026-05-04 05:59 37.38408 -117.40196 29943 ft 402 kts 314°
2026-05-04 05:59 37.42648 -117.44734 29967 ft 403 kts 314°
2026-05-04 06:00 37.46912 -117.49348 29964 ft 402 kts 310°
2026-05-04 06:00 37.48099 -117.51086 29950 ft 392 kts 298°
2026-05-04 06:00 37.49216 -117.54154 29981 ft 384 kts 281°
2026-05-04 06:01 37.50073 -117.60918 29967 ft 400 kts 275°
2026-05-04 06:03 37.52281 -117.86885 29965 ft 443 kts 274°
2026-05-04 06:03 37.52589 -117.90758 29954 ft 443 kts 273°
2026-05-04 06:05 37.55326 -118.25562 29956 ft 445 kts 273°
2026-05-04 06:06 37.55920 -118.33327 29941 ft 445 kts 273°
2026-05-04 06:06 37.56512 -118.41107 29940 ft 444 kts 273°
2026-05-04 06:07 37.57093 -118.48804 29958 ft 444 kts 273°
2026-05-04 06:07 37.57672 -118.56551 29983 ft 442 kts 273°
2026-05-04 06:08 37.58246 -118.64286 30016 ft 443 kts 273°
2026-05-04 06:08 37.58814 -118.72025 30035 ft 443 kts 273°
2026-05-04 06:09 37.59374 -118.79711 30048 ft 443 kts 272°
2026-05-04 06:11 37.61579 -119.10709 30042 ft 446 kts 272°
2026-05-04 06:13 37.63706 -119.41738 30033 ft 437 kts 271°
2026-05-04 06:14 37.65476 -119.68582 30028 ft 442 kts 271°
2026-05-04 06:15 37.65974 -119.76301 30002 ft 444 kts 271°
2026-05-04 06:15 37.66472 -119.84104 30002 ft 445 kts 271°
2026-05-04 06:16 37.66966 -119.91915 29991 ft 446 kts 271°
2026-05-04 06:16 37.67452 -119.99692 29991 ft 446 kts 271°
2026-05-04 06:17 37.67938 -120.07549 30018 ft 447 kts 271°
2026-05-04 06:17 37.68416 -120.15348 30016 ft 448 kts 271°
2026-05-04 06:18 37.68894 -120.23214 30012 ft 448 kts 271°
2026-05-04 06:20 37.68433 -120.53189 30003 ft 439 kts 259°
2026-05-04 06:20 37.67995 -120.56950 29444 ft 429 kts 259°
2026-05-04 06:21 37.66253 -120.71750 26504 ft 427 kts 259°
2026-05-04 06:21 37.65809 -120.75474 25728 ft 428 kts 259°
2026-05-04 06:22 37.65365 -120.79184 25165 ft 424 kts 259°
2026-05-04 06:22 37.64930 -120.82805 24642 ft 420 kts 259°
2026-05-04 06:25 37.58989 -121.28937 16891 ft 407 kts 260°
2026-05-04 06:25 37.58588 -121.32457 16337 ft 404 kts 260°
2026-05-04 06:26 37.58184 -121.35961 15768 ft 402 kts 260°
2026-05-04 06:26 37.57786 -121.39395 15208 ft 400 kts 260°
2026-05-04 06:26 37.57383 -121.42855 14668 ft 397 kts 260°
2026-05-04 06:26 37.56982 -121.46293 14097 ft 395 kts 260°
2026-05-04 06:27 37.55392 -121.59833 11864 ft 386 kts 260°
2026-05-04 06:28 37.54936 -121.63150 11301 ft 383 kts 253°
2026-05-04 06:28 37.54137 -121.66348 10731 ft 381 kts 251°
2026-05-04 06:28 37.53366 -121.69528 10225 ft 377 kts 251°
2026-05-04 06:28 37.52615 -121.72683 9698 ft 374 kts 252°
2026-05-04 06:29 37.51879 -121.75817 9166 ft 371 kts 251°
2026-05-04 06:29 37.51155 -121.78917 8657 ft 368 kts 252°
2026-05-04 06:29 37.50414 -121.82003 7999 ft 369 kts 252°
2026-05-04 06:29 37.49678 -121.85068 7367 ft 369 kts 252°
2026-05-04 06:30 37.49122 -121.88211 6831 ft 367 kts 266°
2026-05-04 06:30 37.49286 -121.91387 6435 ft 359 kts 274°
2026-05-04 06:30 37.49479 -121.94481 6116 ft 350 kts 274°
2026-05-04 06:30 37.49654 -121.97441 5823 ft 328 kts 274°
2026-05-04 06:31 37.49817 -122.00248 5425 ft 313 kts 274°
2026-05-04 06:31 37.49971 -122.02911 5107 ft 297 kts 274°
2026-05-04 06:31 37.50112 -122.05404 5060 ft 273 kts 274°
2026-05-04 06:31 37.50241 -122.07665 5049 ft 251 kts 274°
2026-05-04 06:32 37.50489 -122.09741 5015 ft 230 kts 291°
2026-05-04 06:33 37.55018 -122.20645 2425 ft 151 kts 296°
2026-05-04 06:34 37.55498 -122.21792 2290 ft 145 kts 295°
2026-05-04 06:34 37.55965 -122.22934 1973 ft 147 kts 297°
2026-05-04 06:34 37.56448 -122.24059 1675 ft 145 kts 297°
2026-05-04 06:34 37.56920 -122.25188 1460 ft 145 kts 298°
2026-05-04 06:35 37.57396 -122.26304 1286 ft 144 kts 298°
2026-05-04 06:36 37.60560 -122.33874 330 ft 137 kts 299°
2026-05-04 06:37 37.61026 -122.34908 163 ft 135 kts 297°
2026-05-04 06:37 37.61449 -122.35945 46 ft 133 kts 298°
2026-05-04 06:37 37.61864 -122.36926 25 ft 118 kts 297°
2026-05-04 06:37 37.62182 -122.37687 26 ft 67 kts 297°
2026-05-04 06:38 37.62227 -122.38048 27 ft 20 kts 266°
2026-05-04 06:38 37.62207 -122.38177 25 ft 10 kts 234°
2026-05-04 06:40 37.61813 -122.37877 26 ft 15 kts 161°
2026-05-04 06:40 37.61717 -122.37920 27 ft 9 kts 230°
2026-05-04 06:40 37.61703 -122.37953 26 ft 3 kts 253°
2026-05-04 06:40 37.61705 -122.37990 24 ft 6 kts 282°
2026-05-04 06:41 37.61710 -122.38034 24 ft 2 kts 276°
2026-05-04 06:41 37.61711 -122.38041 24 ft 0 kts 276°